Location: Faicchio
(41.2833°N, 14.4833°E)
Time: 07:17:40
(UTC+00:00)

ADEOS II - Pass Details

Date: 15 June 2025
Orbit: 794 x 795 km, 98.7° (Epoch: 16 July)

Event Time Altitude Azimuth Distance (km) Brightness Sun altitude
Rises 02:28:39 0° 5° (N) 3,305 6.1 -9.7°
Reaches altitude 10° 02:31:07 10° 357° (N) 2,371 5.1 -9.3°
Maximum altitude 02:35:52 36° 292° (WNW) 1,233 2.9 -8.7°
Drops below altitude 10° 02:40:36 10° 227° (SW) 2,357 3.8 -8.0°
Enters shadow 02:40:39 10° 226° (SW) 2,380 3.8 -8.0°
